Whitefield, NH

4:30 AM EST on November 18, 2017 (GMT -0500)
Mount Washington Regional

Weather History for KHIE - December, 2013

Change the Weather History Date:

Tuesday, December 31, 2013

  Actual Average Record
Temperature  
Mean Temperature 5 °F -  
Max Temperature 10 °F 26 °F 48 °F (2004)
Min Temperature 0 °F 5 °F -15 °F (1998)
Degree Days  
Heating Degree Days 60    
Moisture  
Dew Point 1 °F    
Average Humidity 75    
Maximum Humidity 85    
Minimum Humidity 61    
Precipitation  
Precipitation 0.00 in - - ()
Sea Level Pressure  
Sea Level Pressure 30.04 in    
Wind  
Wind Speed 2 mph (West)    
Max Wind Speed 6 mph    
Max Gust Speed -    
Visibility 5 miles    
Events Snow    
Averages and records for this station are not official NWS values.
T = Trace of Precipitation, MM = Missing Value Source: NWS Daily Summary

Daily Weather History Graph

Daily Weather History Graph

Search for Another Location

Airport or City:

Trip Planner

Search our weather history database for the weather conditions in past years. The results will help you decide how hot, cold, wet, or windy it might be!

Date:

Astronomy

Dec. 31, 2013 Rise Set
Actual Time 7:22 AM EST 4:16 PM EST
Civil Twilight 6:48 AM EST 4:49 PM EST
Nautical Twilight 6:12 AM EST 5:26 PM EST
Astronomical Twilight 5:36 AM EST 6:01 PM EST
Moon 6:10 AM EST (12/31) 3:51 PM EST (12/31)
Length of Visible Light 10h 00m
Length of Day
8h 54m
Waning Crescent, 1% of the Moon is Illuminated
Dec 31
Waning Crescent
Jan 1
New
Jan 7
First Quarter
Jan 15
Full
Jan 24
Last Quarter

Hourly Weather History & Observations

Time (EST) Temp. Windchill Dew Point Humidity Pressure Visibility Wind Dir Wind Speed Gust Speed Precip Events Conditions
12:52 AM 1.9 °F -5.6 °F -6.0 °F 69% 30.19 in 10.0 mi WNW 3.5 mph - N/A   Clear
1:52 AM 1.0 °F - -4.0 °F 79% 30.19 in 10.0 mi Calm Calm - N/A   Clear
2:52 AM 1.0 °F - -7.1 °F 69% 30.19 in 10.0 mi Calm Calm - N/A   Clear
3:52 AM 1.0 °F - -5.1 °F 75% 30.19 in 10.0 mi Calm Calm - N/A   Clear
4:52 AM -0.0 °F - -5.1 °F 79% 30.17 in 10.0 mi Calm Calm - N/A   Clear
5:52 AM -0.0 °F - -5.1 °F 79% 30.14 in 10.0 mi Calm Calm - N/A   Clear
6:52 AM 1.0 °F - -5.1 °F 75% 30.13 in 10.0 mi Calm Calm - N/A   Overcast
7:52 AM 1.0 °F -6.7 °F -5.1 °F 75% 30.13 in 10.0 mi NNE 3.5 mph - N/A   Overcast
8:52 AM 1.9 °F - -5.1 °F 72% 30.12 in 10.0 mi Calm Calm - N/A   Overcast
9:52 AM 3.9 °F - -5.1 °F 66% 30.12 in 10.0 mi Calm Calm - N/A   Mostly Cloudy
10:52 AM 6.1 °F - -4.0 °F 63% 30.10 in 10.0 mi Calm Calm - N/A   Overcast
11:52 AM 8.1 °F - -2.9 °F 61% 30.06 in 10.0 mi Calm Calm - N/A   Overcast
12:52 PM 9.0 °F - -2.0 °F 61% 30.03 in 10.0 mi Calm Calm - N/A   Overcast
1:27 PM 9.0 °F 2.4 °F -0.0 °F 67% 29.94 in 2.0 mi West 3.5 mph - 0.00 in Snow Light Snow
1:34 PM 9.0 °F 2.4 °F -0.0 °F 67% 29.94 in 1.2 mi West 3.5 mph - 0.00 in Snow Light Snow
1:52 PM 9.0 °F - 1.0 °F 70% 30.02 in 1.0 mi Calm Calm - 0.00 in Snow Light Snow
2:07 PM 10.0 °F 1.8 °F 1.9 °F 70% 29.94 in 1.5 mi WNW 4.6 mph - 0.00 in Snow Light Snow
2:28 PM 10.0 °F 1.8 °F 3.0 °F 73% 29.93 in 1.5 mi West 4.6 mph - 0.00 in Snow Light Snow
2:36 PM 10.0 °F 0.4 °F 1.9 °F 70% 29.93 in 3.0 mi West 5.8 mph - 0.00 in   Haze
2:52 PM 10.0 °F 1.8 °F 1.0 °F 67% 30.02 in 10.0 mi West 4.6 mph - 0.00 in   Mostly Cloudy
3:02 PM 10.0 °F 0.4 °F 1.9 °F 70% 29.94 in 10.0 mi WNW 5.8 mph - N/A   Scattered Clouds
3:52 PM 10.0 °F - 1.9 °F 70% 30.03 in 10.0 mi Calm Calm - N/A   Mostly Cloudy
4:52 PM 10.0 °F - 3.0 °F 73% 30.04 in 5.0 mi Calm Calm - 0.00 in Snow Light Snow
5:36 PM 10.0 °F - 3.9 °F 76% 29.97 in 2.0 mi Calm Calm - 0.00 in Snow Light Snow
5:44 PM 10.0 °F - 3.9 °F 76% 29.97 in 1.8 mi Calm Calm - 0.00 in Snow Light Snow
5:52 PM 10.0 °F - 3.9 °F 76% 30.06 in 2.5 mi Calm Calm - 0.00 in Snow Light Snow
6:08 PM 10.0 °F - 3.9 °F 76% 29.97 in 1.2 mi Calm Calm - 0.00 in Snow Light Snow
6:19 PM 10.0 °F 3.6 °F 3.9 °F 76% 29.97 in 3.0 mi ENE 3.5 mph - 0.00 in Snow Light Snow
6:35 PM 10.0 °F - 3.9 °F 76% 29.97 in 2.0 mi Calm Calm - 0.00 in Snow Light Snow
6:52 PM 9.0 °F - 3.9 °F 80% 30.05 in 1.8 mi Calm Calm - 0.00 in Snow Light Snow
7:02 PM 9.0 °F - 3.9 °F 80% 29.97 in 3.0 mi Calm Calm - 0.00 in Snow Light Snow
7:42 PM 9.0 °F - 5.0 °F 84% 29.97 in 1.8 mi Calm Calm - 0.00 in Snow Light Snow
7:49 PM 8.6 °F - 3.2 °F 79% 29.97 in 3.0 mi Calm Calm - 0.00 in Snow Light Snow
7:50 PM 9.0 °F - 3.9 °F 80% 30.06 in 4.0 mi Calm Calm - 0.00 in Snow Light Snow
8:18 PM 9.0 °F - 5.0 °F 84% 29.96 in 2.5 mi Calm Calm - 0.00 in Snow Light Snow
8:32 PM 9.0 °F - 3.0 °F 77% 29.97 in 3.0 mi Calm Calm - 0.00 in Snow Light Snow
8:39 PM 9.0 °F 2.4 °F 3.0 °F 77% 29.97 in 5.0 mi WNW 3.5 mph - 0.00 in   Haze
8:52 PM 9.0 °F - 5.0 °F 84% 30.06 in 5.0 mi Calm Calm - 0.00 in   Overcast
8:59 PM 9.0 °F 0.6 °F 5.0 °F 84% 29.98 in 3.0 mi West 4.6 mph - 0.00 in Snow Light Snow
9:52 PM 9.0 °F - 3.9 °F 80% 30.08 in 4.0 mi Calm Calm - 0.00 in   Haze
10:31 PM 9.0 °F 0.6 °F 3.9 °F 80% 30.01 in 10.0 mi SW 4.6 mph - 0.00 in   Mostly Cloudy
10:45 PM 10.0 °F 3.6 °F 3.9 °F 76% 30.01 in 2.5 mi SSW 3.5 mph - 0.00 in Snow Light Snow
10:52 PM 10.0 °F 3.6 °F 5.0 °F 80% 30.09 in 1.5 mi SW 3.5 mph - 0.00 in Snow Light Snow
11:20 PM 10.9 °F 4.7 °F 6.1 °F 81% 30.02 in 0.8 mi SW 3.5 mph - 0.00 in Snow Light Snow
11:46 PM 10.4 °F - 6.8 °F 85% 30.02 in 1.2 mi Calm Calm - 0.00 in Snow Light Snow
11:52 PM 10.0 °F 3.6 °F 6.1 °F 84% 30.10 in 2.5 mi SSW 3.5 mph - 0.00 in Snow Light Snow
11:59 PM 10.0 °F 3.6 °F 5.0 °F 80% 30.02 in 5.0 mi SW 3.5 mph - 0.00 in   Haze